Time,TemperatureF,DewpointF,PressureIn,WindDirection,WindDirectionDegrees,WindSpeedMPH,WindSpeedGustMPH,Humidity,HourlyPrecipIn,Conditions,Clouds,dailyrainin,SoftwareType,DateUTC
2013-06-06 00:01:00,68.5,66.1,29.87,SSW,207,0.0,0.0,92,0.00,,,0.00,Wunderground v.1.15,2013-06-06 04:01:00,
2013-06-06 00:02:00,68.4,66.0,29.87,SSW,207,0.0,0.0,92,0.00,,,0.00,Wunderground v.1.15,2013-06-06 04:02:00,
2013-06-06 00:05:00,68.3,65.9,29.87,SSW,208,0.0,0.0,92,0.00,,,0.00,Wunderground v.1.15,2013-06-06 04:05:00,
2013-06-06 00:11:00,68.1,66.0,29.87,SE,145,0.0,0.0,93,0.00,,,0.00,Wunderground v.1.15,2013-06-06 04:11:00,
2013-06-06 00:13:00,68.1,66.0,29.87,SSE,149,0.0,0.0,93,0.00,,,0.00,Wunderground v.1.15,2013-06-06 04:13:00,
2013-06-06 00:18:00,67.9,65.8,29.87,SE,146,0.0,1.0,93,0.00,,,0.00,Wunderground v.1.15,2013-06-06 04:18:00,
2013-06-06 00:24:00,67.9,66.1,29.87,SSE,159,0.0,1.0,94,0.00,,,0.00,Wunderground v.1.15,2013-06-06 04:24:00,
2013-06-06 00:30:00,67.9,66.1,29.87,South,180,0.0,3.0,94,0.00,,,0.00,Wunderground v.1.15,2013-06-06 04:30:00,
2013-06-06 00:36:00,68.0,66.2,29.86,SSW,211,1.0,3.0,94,0.00,,,0.00,Wunderground v.1.15,2013-06-06 04:36:00,
2013-06-06 00:41:00,67.9,66.1,29.86,SE,145,1.0,1.0,94,0.00,,,0.00,Wunderground v.1.15,2013-06-06 04:41:00,
2013-06-06 00:47:00,67.8,66.0,29.86,SSE,160,1.0,3.0,94,0.00,,,0.00,Wunderground v.1.15,2013-06-06 04:47:00,
2013-06-06 00:52:00,67.7,65.9,29.86,South,176,0.0,0.0,94,0.00,,,0.00,Wunderground v.1.15,2013-06-06 04:52:00,
2013-06-06 00:58:00,67.6,65.8,29.86,SE,146,0.0,1.0,94,0.00,,,0.00,Wunderground v.1.15,2013-06-06 04:58:00,
2013-06-06 01:04:00,67.5,65.7,29.86,SSE,163,0.0,2.0,94,0.00,,,0.00,Wunderground v.1.15,2013-06-06 05:04:00,
2013-06-06 01:09:00,67.5,65.7,29.86,South,183,0.0,2.0,94,0.00,,,0.00,Wunderground v.1.15,2013-06-06 05:09:00,
2013-06-06 01:15:00,67.5,65.7,29.86,SSW,207,0.0,2.0,94,0.00,,,0.00,Wunderground v.1.15,2013-06-06 05:15:00,
2013-06-06 01:20:00,67.5,65.7,29.85,SW,222,0.0,1.0,94,0.00,,,0.00,Wunderground v.1.15,2013-06-06 05:20:00,
2013-06-06 01:26:00,67.4,65.6,29.85,SSE,155,0.0,1.0,94,0.00,,,0.00,Wunderground v.1.15,2013-06-06 05:26:00,
2013-06-06 01:32:00,67.2,65.4,29.85,South,170,0.0,0.0,94,0.00,,,0.00,Wunderground v.1.15,2013-06-06 05:32:00,
2013-06-06 01:38:00,67.1,65.6,29.85,SSE,163,0.0,2.0,95,0.00,,,0.00,Wunderground v.1.15,2013-06-06 05:38:00,
2013-06-06 01:43:00,67.1,65.6,29.85,SSE,160,0.0,1.0,95,0.00,,,0.00,Wunderground v.1.15,2013-06-06 05:43:00,
2013-06-06 01:49:00,67.0,65.5,29.85,SSE,150,0.0,1.0,95,0.00,,,0.00,Wunderground v.1.15,2013-06-06 05:49:00,
2013-06-06 01:55:00,66.9,65.4,29.85,SSE,155,0.0,0.0,95,0.00,,,0.00,Wunderground v.1.15,2013-06-06 05:55:00,
2013-06-06 02:00:00,66.8,65.3,29.84,SSE,159,0.0,0.0,95,0.00,,,0.00,Wunderground v.1.15,2013-06-06 06:00:00,
2013-06-06 02:06:00,66.7,65.2,29.84,South,186,0.0,1.0,95,0.00,,,0.00,Wunderground v.1.15,2013-06-06 06:06:00,
2013-06-06 02:12:00,66.6,65.1,29.84,SSE,160,0.0,1.0,95,0.00,,,0.00,Wunderground v.1.15,2013-06-06 06:12:00,
2013-06-06 02:18:00,66.5,65.0,29.84,South,187,0.0,1.0,95,0.00,,,0.00,Wunderground v.1.15,2013-06-06 06:18:00,
2013-06-06 02:23:00,66.5,65.0,29.84,South,173,0.0,1.0,95,0.00,,,0.00,Wunderground v.1.15,2013-06-06 06:23:00,
2013-06-06 02:28:00,66.4,64.9,29.83,SSE,155,0.0,1.0,95,0.00,,,0.00,Wunderground v.1.15,2013-06-06 06:28:00,
2013-06-06 02:34:00,66.2,64.7,29.83,SSE,150,0.0,1.0,95,0.00,,,0.00,Wunderground v.1.15,2013-06-06 06:34:00,
2013-06-06 02:39:00,66.2,65.0,29.83,SSW,201,0.0,2.0,96,0.00,,,0.00,Wunderground v.1.15,2013-06-06 06:39:00,
2013-06-06 02:45:00,66.1,64.9,29.83,SSW,207,0.0,2.0,96,0.00,,,0.00,Wunderground v.1.15,2013-06-06 06:45:00,
2013-06-06 02:51:00,66.1,64.9,29.82,SSW,193,0.0,1.0,96,0.00,,,0.00,Wunderground v.1.15,2013-06-06 06:51:00,
2013-06-06 02:57:00,66.0,64.5,29.82,SE,143,0.0,1.0,95,0.00,,,0.00,Wunderground v.1.15,2013-06-06 06:57:00,
2013-06-06 03:02:00,65.9,64.7,29.82,SE,136,0.0,1.0,96,0.00,,,0.00,Wunderground v.1.15,2013-06-06 07:02:00,
2013-06-06 03:07:00,65.9,64.7,29.82,SSE,150,0.0,1.0,96,0.00,,,0.00,Wunderground v.1.15,2013-06-06 07:07:00,
2013-06-06 03:13:00,65.8,64.6,29.82,SSE,150,0.0,1.0,96,0.00,,,0.00,Wunderground v.1.15,2013-06-06 07:13:00,
2013-06-06 03:19:00,65.8,64.6,29.82,SSE,158,0.0,1.0,96,0.00,,,0.00,Wunderground v.1.15,2013-06-06 07:19:00,
2013-06-06 03:25:00,65.7,64.5,29.82,South,169,0.0,1.0,96,0.00,,,0.00,Wunderground v.1.15,2013-06-06 07:25:00,
2013-06-06 03:31:00,65.6,64.4,29.82,SSW,206,0.0,1.0,96,0.00,,,0.00,Wunderground v.1.15,2013-06-06 07:31:00,
2013-06-06 03:37:00,65.5,64.0,29.81,South,181,0.0,1.0,95,0.00,,,0.00,Wunderground v.1.15,2013-06-06 07:37:00,
2013-06-06 03:43:00,65.5,64.3,29.81,SSW,199,1.0,3.0,96,0.00,,,0.00,Wunderground v.1.15,2013-06-06 07:43:00,
2013-06-06 03:48:00,65.5,64.3,29.81,South,181,1.0,3.0,96,0.00,,,0.00,Wunderground v.1.15,2013-06-06 07:48:00,
2013-06-06 03:54:00,65.4,64.2,29.81,SSW,197,0.0,1.0,96,0.00,,,0.00,Wunderground v.1.15,2013-06-06 07:54:00,
2013-06-06 04:00:00,65.4,64.2,29.81,SE,146,0.0,0.0,96,0.00,,,0.00,Wunderground v.1.15,2013-06-06 08:00:00,
2013-06-06 04:06:00,65.4,64.2,29.81,SSE,155,1.0,2.0,96,0.00,,,0.00,Wunderground v.1.15,2013-06-06 08:06:00,
2013-06-06 04:12:00,65.4,63.9,29.81,SSW,203,1.0,2.0,95,0.00,,,0.00,Wunderground v.1.15,2013-06-06 08:12:00,
2013-06-06 04:17:00,65.4,63.9,29.81,WSW,248,1.0,2.0,95,0.00,,,0.00,Wunderground v.1.15,2013-06-06 08:17:00,
2013-06-06 04:23:00,65.4,63.9,29.81,SE,146,0.0,1.0,95,0.00,,,0.00,Wunderground v.1.15,2013-06-06 08:23:00,
2013-06-06 04:29:00,65.4,63.9,29.81,South,176,0.0,2.0,95,0.00,,,0.00,Wunderground v.1.15,2013-06-06 08:29:00,
2013-06-06 04:34:00,65.5,64.0,29.81,SSW,207,1.0,1.0,95,0.00,,,0.00,Wunderground v.1.15,2013-06-06 08:34:00,
2013-06-06 04:39:00,65.5,64.0,29.81,SE,142,1.0,2.0,95,0.00,,,0.00,Wunderground v.1.15,2013-06-06 08:39:00,
2013-06-06 04:45:00,65.5,64.0,29.81,SE,134,1.0,2.0,95,0.00,,,0.00,Wunderground v.1.15,2013-06-06 08:45:00,
2013-06-06 04:51:00,65.4,63.9,29.81,SSW,195,0.0,1.0,95,0.00,,,0.00,Wunderground v.1.15,2013-06-06 08:51:00,
2013-06-06 04:57:00,65.3,63.8,29.81,SW,226,0.0,1.0,95,0.00,,,0.00,Wunderground v.1.15,2013-06-06 08:57:00,
2013-06-06 05:03:00,65.2,63.7,29.81,South,169,0.0,2.0,95,0.00,,,0.00,Wunderground v.1.15,2013-06-06 09:03:00,
2013-06-06 05:08:00,65.1,63.6,29.81,South,174,1.0,2.0,95,0.00,,,0.00,Wunderground v.1.15,2013-06-06 09:08:00,
2013-06-06 05:14:00,65.0,63.5,29.81,SSE,150,0.0,2.0,95,0.00,,,0.00,Wunderground v.1.15,2013-06-06 09:14:00,
2013-06-06 05:20:00,65.0,63.5,29.81,SE,141,1.0,1.0,95,0.00,,,0.00,Wunderground v.1.15,2013-06-06 09:20:00,
2013-06-06 05:25:00,65.0,63.5,29.81,South,190,1.0,1.0,95,0.00,,,0.00,Wunderground v.1.15,2013-06-06 09:25:00,
2013-06-06 05:31:00,64.9,63.4,29.81,SE,124,1.0,1.0,95,0.00,,,0.00,Wunderground v.1.15,2013-06-06 09:31:00,
2013-06-06 05:37:00,64.8,63.3,29.81,SSE,149,1.0,1.0,95,0.00,,,0.00,Wunderground v.1.15,2013-06-06 09:37:00,
2013-06-06 05:42:00,64.7,63.5,29.81,SSW,206,1.0,1.0,96,0.00,,,0.00,Wunderground v.1.15,2013-06-06 09:42:00,
2013-06-06 05:48:00,64.7,63.5,29.81,South,183,1.0,2.0,96,0.00,,,0.00,Wunderground v.1.15,2013-06-06 09:48:00,
2013-06-06 05:54:00,64.6,63.4,29.81,SSW,204,0.0,2.0,96,0.00,,,0.00,Wunderground v.1.15,2013-06-06 09:54:00,
2013-06-06 05:59:00,64.5,63.3,29.81,SSE,153,0.0,2.0,96,0.00,,,0.00,Wunderground v.1.15,2013-06-06 09:59:00,
2013-06-06 06:05:00,64.5,63.3,29.81,SSE,149,0.0,2.0,96,0.00,,,0.00,Wunderground v.1.15,2013-06-06 10:05:00,
2013-06-06 06:10:00,64.4,63.2,29.81,South,184,0.0,1.0,96,0.00,,,0.00,Wunderground v.1.15,2013-06-06 10:10:00,
2013-06-06 06:16:00,64.4,63.2,29.81,South,188,0.0,3.0,96,0.00,,,0.00,Wunderground v.1.15,2013-06-06 10:16:00,
2013-06-06 06:22:00,64.4,63.2,29.81,SE,144,1.0,1.0,96,0.00,,,0.00,Wunderground v.1.15,2013-06-06 10:22:00,
2013-06-06 06:27:00,64.4,63.2,29.81,SSE,148,0.0,1.0,96,0.00,,,0.00,Wunderground v.1.15,2013-06-06 10:27:00,
2013-06-06 06:33:00,64.3,63.1,29.81,South,169,0.0,1.0,96,0.00,,,0.00,Wunderground v.1.15,2013-06-06 10:33:00,
2013-06-06 06:38:00,64.4,63.2,29.81,SSE,158,0.0,1.0,96,0.00,,,0.00,Wunderground v.1.15,2013-06-06 10:38:00,
2013-06-06 06:44:00,64.4,63.2,29.81,SE,143,0.0,1.0,96,0.00,,,0.00,Wunderground v.1.15,2013-06-06 10:44:00,
2013-06-06 06:50:00,64.5,63.3,29.81,SSE,158,0.0,1.0,96,0.00,,,0.00,Wunderground v.1.15,2013-06-06 10:50:00,
2013-06-06 06:55:00,64.5,63.3,29.81,SSE,153,0.0,1.0,96,0.00,,,0.00,Wunderground v.1.15,2013-06-06 10:55:00,
2013-06-06 07:00:00,64.7,63.5,29.81,SSW,208,0.0,0.0,96,0.00,,,0.00,Wunderground v.1.15,2013-06-06 11:00:00,
2013-06-06 07:06:00,64.8,63.6,29.81,South,191,0.0,0.0,96,0.00,,,0.00,Wunderground v.1.15,2013-06-06 11:06:00,
2013-06-06 07:12:00,64.9,63.7,29.81,SSE,167,0.0,0.0,96,0.00,,,0.00,Wunderground v.1.15,2013-06-06 11:12:00,
2013-06-06 07:17:00,65.0,63.8,29.80,SSW,206,0.0,1.0,96,0.00,,,0.00,Wunderground v.1.15,2013-06-06 11:17:00,
2013-06-06 07:23:00,65.2,64.0,29.81,South,172,0.0,2.0,96,0.00,,,0.00,Wunderground v.1.15,2013-06-06 11:23:00,
2013-06-06 07:29:00,65.3,64.1,29.80,SSE,152,0.0,2.0,96,0.00,,,0.00,Wunderground v.1.15,2013-06-06 11:29:00,
2013-06-06 07:35:00,65.5,64.3,29.80,SSW,195,1.0,3.0,96,0.00,,,0.00,Wunderground v.1.15,2013-06-06 11:35:00,
2013-06-06 07:40:00,65.7,64.2,29.80,South,173,1.0,1.0,95,0.00,,,0.00,Wunderground v.1.15,2013-06-06 11:40:00,
2013-06-06 07:46:00,65.9,64.4,29.80,SW,231,1.0,2.0,95,0.00,,,0.00,Wunderground v.1.15,2013-06-06 11:46:00,
2013-06-06 07:52:00,66.1,64.6,29.80,SW,231,1.0,2.0,95,0.00,,,0.00,Wunderground v.1.15,2013-06-06 11:52:00,
2013-06-06 07:58:00,66.4,64.9,29.79,SSW,203,1.0,2.0,95,0.00,,,0.00,Wunderground v.1.15,2013-06-06 11:58:00,
2013-06-06 08:03:00,66.7,64.9,29.79,SE,145,1.0,5.0,94,0.00,,,0.00,Wunderground v.1.15,2013-06-06 12:03:00,
2013-06-06 08:09:00,66.8,64.7,29.79,SE,129,1.0,5.0,93,0.00,,,0.00,Wunderground v.1.15,2013-06-06 12:09:00,
2013-06-06 08:15:00,67.0,64.9,29.79,SE,146,1.0,5.0,93,0.00,,,0.00,Wunderground v.1.15,2013-06-06 12:15:00,
2013-06-06 08:20:00,67.3,65.2,29.80,SSE,159,1.0,5.0,93,0.00,,,0.00,Wunderground v.1.15,2013-06-06 12:20:00,
2013-06-06 08:26:00,67.6,65.5,29.79,SSE,156,2.0,5.0,93,0.00,,,0.00,Wunderground v.1.15,2013-06-06 12:26:00,
2013-06-06 08:32:00,67.9,65.5,29.79,SSW,203,2.0,5.0,92,0.00,,,0.00,Wunderground v.1.15,2013-06-06 12:32:00,
2013-06-06 08:38:00,68.2,65.5,29.79,SSE,162,2.0,5.0,91,0.00,,,0.00,Wunderground v.1.15,2013-06-06 12:38:00,
2013-06-06 08:43:00,68.5,65.8,29.79,SSE,148,2.0,5.0,91,0.00,,,0.00,Wunderground v.1.15,2013-06-06 12:43:00,
2013-06-06 08:49:00,69.0,65.9,29.79,SW,223,3.0,6.0,90,0.00,,,0.00,Wunderground v.1.15,2013-06-06 12:49:00,
2013-06-06 08:55:00,69.2,65.8,29.79,SE,139,3.0,5.0,89,0.00,,,0.00,Wunderground v.1.15,2013-06-06 12:55:00,
2013-06-06 09:00:00,69.4,65.7,29.79,West,260,2.0,2.0,88,0.00,,,0.00,Wunderground v.1.15,2013-06-06 13:00:00,
2013-06-06 09:06:00,69.8,66.1,29.79,SSW,204,3.0,6.0,88,0.00,,,0.00,Wunderground v.1.15,2013-06-06 13:06:00,
2013-06-06 09:11:00,70.2,66.5,29.78,SE,142,3.0,5.0,88,0.00,,,0.00,Wunderground v.1.15,2013-06-06 13:11:00,
2013-06-06 09:17:00,70.5,66.4,29.78,SSW,204,2.0,5.0,87,0.00,,,0.00,Wunderground v.1.15,2013-06-06 13:17:00,
2013-06-06 09:22:00,70.4,66.0,29.78,SE,139,3.0,5.0,86,0.00,,,0.00,Wunderground v.1.15,2013-06-06 13:22:00,
2013-06-06 09:28:00,70.5,66.4,29.78,SE,139,3.0,5.0,87,0.00,,,0.00,Wunderground v.1.15,2013-06-06 13:28:00,
2013-06-06 09:34:00,70.9,66.5,29.78,SW,217,2.0,5.0,86,0.00,,,0.00,Wunderground v.1.15,2013-06-06 13:34:00,
2013-06-06 09:40:00,71.2,66.5,29.78,SE,133,3.0,5.0,85,0.00,,,0.00,Wunderground v.1.15,2013-06-06 13:40:00,
2013-06-06 09:46:00,71.1,66.4,29.78,South,174,3.0,8.0,85,0.00,,,0.00,Wunderground v.1.15,2013-06-06 13:46:00,
2013-06-06 09:51:00,71.2,66.5,29.79,SSW,212,3.0,5.0,85,0.00,,,0.00,Wunderground v.1.15,2013-06-06 13:51:00,
2013-06-06 09:57:00,71.4,66.3,29.79,SE,138,2.0,5.0,84,0.00,,,0.00,Wunderground v.1.15,2013-06-06 13:57:00,
2013-06-06 10:03:00,71.8,67.4,29.79,South,178,2.0,5.0,86,0.00,,,0.00,Wunderground v.1.15,2013-06-06 14:03:00,
2013-06-06 10:09:00,71.9,66.5,29.79,SW,224,3.0,5.0,83,0.00,,,0.00,Wunderground v.1.15,2013-06-06 14:09:00,
2013-06-06 10:14:00,71.9,66.8,29.79,SSW,206,3.0,6.0,84,0.00,,,0.00,Wunderground v.1.15,2013-06-06 14:14:00,
2013-06-06 10:19:00,72.0,66.9,29.79,South,190,4.0,6.0,84,0.00,,,0.00,Wunderground v.1.15,2013-06-06 14:19:00,
2013-06-06 10:25:00,72.7,67.2,29.78,SW,234,3.0,8.0,83,0.00,,,0.00,Wunderground v.1.15,2013-06-06 14:25:00,
2013-06-06 10:30:00,72.9,67.1,29.79,SSW,212,2.0,5.0,82,0.00,,,0.00,Wunderground v.1.15,2013-06-06 14:30:00,
2013-06-06 10:36:00,72.6,66.8,29.79,SSW,204,2.0,7.0,82,0.00,,,0.00,Wunderground v.1.15,2013-06-06 14:36:00,
2013-06-06 10:41:00,72.2,66.7,29.79,SSW,208,2.0,4.0,83,0.00,,,0.00,Wunderground v.1.15,2013-06-06 14:41:00,
2013-06-06 10:47:00,71.8,66.7,29.79,SW,217,1.0,5.0,84,0.00,,,0.00,Wunderground v.1.15,2013-06-06 14:47:00,
2013-06-06 10:53:00,71.4,67.0,29.79,SW,217,1.0,5.0,86,0.00,,,0.00,Wunderground v.1.15,2013-06-06 14:53:00,
2013-06-06 10:59:00,71.1,67.4,29.80,WSW,245,1.0,5.0,88,0.00,,,0.00,Wunderground v.1.15,2013-06-06 14:59:00,
2013-06-06 11:05:00,70.9,67.2,29.80,WSW,243,0.0,2.0,88,0.00,,,0.00,Wunderground v.1.15,2013-06-06 15:05:00,
2013-06-06 11:11:00,70.6,67.2,29.79,SSE,165,1.0,2.0,89,0.00,,,0.00,Wunderground v.1.15,2013-06-06 15:11:00,
2013-06-06 11:17:00,70.4,67.0,29.80,WSW,245,1.0,3.0,89,0.00,,,0.00,Wunderground v.1.15,2013-06-06 15:17:00,
2013-06-06 11:22:00,70.2,66.8,29.79,SW,231,1.0,2.0,89,0.00,,,0.00,Wunderground v.1.15,2013-06-06 15:22:00,
2013-06-06 11:27:00,70.2,67.1,29.79,SSE,154,0.0,2.0,90,0.00,,,0.00,Wunderground v.1.15,2013-06-06 15:27:00,
2013-06-06 11:32:00,70.3,66.9,29.79,WSW,245,0.0,3.0,89,0.00,,,0.00,Wunderground v.1.15,2013-06-06 15:32:00,
2013-06-06 11:38:00,70.5,67.1,29.79,SSW,205,1.0,3.0,89,0.00,,,0.00,Wunderground v.1.15,2013-06-06 15:38:00,
2013-06-06 11:43:00,70.5,67.1,29.79,WSW,245,1.0,2.0,89,0.00,,,0.01,Wunderground v.1.15,2013-06-06 15:43:00,
2013-06-06 11:49:00,70.5,67.1,29.79,SSW,193,1.0,5.0,89,0.14,,,0.02,Wunderground v.1.15,2013-06-06 15:49:00,
2013-06-06 11:54:00,70.4,67.3,29.78,SE,141,1.0,4.0,90,0.08,,,0.02,Wunderground v.1.15,2013-06-06 15:54:00,
2013-06-06 12:00:00,71.6,69.5,29.78,SSE,163,1.0,1.0,93,0.04,,,0.02,Wunderground v.1.15,2013-06-06 16:00:00,
2013-06-06 12:06:00,72.3,68.5,29.78,SE,133,1.0,4.0,88,0.00,,,0.02,Wunderground v.1.15,2013-06-06 16:06:00,
2013-06-06 12:12:00,72.8,69.0,29.78,SSW,201,2.0,3.0,88,0.00,,,0.02,Wunderground v.1.15,2013-06-06 16:12:00,
2013-06-06 12:17:00,73.6,69.5,29.78,SE,145,1.0,3.0,87,0.00,,,0.02,Wunderground v.1.15,2013-06-06 16:17:00,
2013-06-06 12:23:00,73.7,68.9,29.78,SE,146,2.0,4.0,85,0.00,,,0.02,Wunderground v.1.15,2013-06-06 16:23:00,
2013-06-06 12:28:00,73.6,68.5,29.78,SW,214,2.0,4.0,84,0.00,,,0.02,Wunderground v.1.15,2013-06-06 16:28:00,
2013-06-06 12:33:00,73.4,68.3,29.77,WSW,251,2.0,3.0,84,0.00,,,0.02,Wunderground v.1.15,2013-06-06 16:33:00,
2013-06-06 12:39:00,72.6,67.8,29.78,South,190,3.0,4.0,85,0.00,,,0.02,Wunderground v.1.15,2013-06-06 16:39:00,
2013-06-06 12:44:00,71.7,67.6,29.78,South,184,2.0,3.0,87,0.15,,,0.04,Wunderground v.1.15,2013-06-06 16:44:00,
2013-06-06 12:50:00,71.1,67.7,29.78,SSE,167,1.0,1.0,89,0.06,,,0.04,Wunderground v.1.15,2013-06-06 16:50:00,
2013-06-06 12:56:00,71.1,68.3,29.78,WSW,249,1.0,3.0,91,0.04,,,0.04,Wunderground v.1.15,2013-06-06 16:56:00,
2013-06-06 13:01:00,72.1,69.3,29.77,SW,236,2.0,6.0,91,0.00,,,0.05,Wunderground v.1.15,2013-06-06 17:01:00,
2013-06-06 13:07:00,73.3,69.5,29.77,WNW,283,3.0,8.0,88,0.00,,,0.05,Wunderground v.1.15,2013-06-06 17:07:00,
2013-06-06 13:12:00,73.6,69.2,29.77,West,260,3.0,8.0,86,0.00,,,0.05,Wunderground v.1.15,2013-06-06 17:12:00,
2013-06-06 13:18:00,73.6,69.2,29.77,WSW,251,3.0,8.0,86,0.00,,,0.05,Wunderground v.1.15,2013-06-06 17:18:00,
2013-06-06 13:23:00,73.7,69.2,29.77,SW,215,2.0,8.0,86,0.00,,,0.05,Wunderground v.1.15,2013-06-06 17:23:00,
2013-06-06 13:29:00,74.4,69.2,29.77,SW,219,2.0,8.0,84,0.00,,,0.05,Wunderground v.1.15,2013-06-06 17:29:00,
2013-06-06 13:35:00,74.2,69.1,29.77,WSW,240,3.0,8.0,84,0.00,,,0.05,Wunderground v.1.15,2013-06-06 17:35:00,
2013-06-06 13:41:00,74.5,68.6,29.77,South,179,3.0,8.0,82,0.00,,,0.05,Wunderground v.1.15,2013-06-06 17:41:00,
2013-06-06 13:47:00,74.3,68.4,29.77,SW,234,3.0,8.0,82,0.00,,,0.05,Wunderground v.1.15,2013-06-06 17:47:00,
2013-06-06 13:53:00,75.2,69.0,29.76,South,179,3.0,8.0,81,0.00,,,0.05,Wunderground v.1.15,2013-06-06 17:53:00,
2013-06-06 13:58:00,75.9,68.2,29.77,SE,139,3.0,8.0,77,0.00,,,0.05,Wunderground v.1.15,2013-06-06 17:58:00,
2013-06-06 14:04:00,76.0,68.6,29.77,SW,232,3.0,7.0,78,0.00,,,0.05,Wunderground v.1.15,2013-06-06 18:04:00,
2013-06-06 14:10:00,76.3,68.9,29.76,SW,214,4.0,4.0,78,0.00,,,0.05,Wunderground v.1.15,2013-06-06 18:10:00,
2013-06-06 14:15:00,76.6,68.5,29.76,WSW,253,3.0,6.0,76,0.00,,,0.05,Wunderground v.1.15,2013-06-06 18:15:00,
2013-06-06 14:21:00,76.3,68.6,29.76,WSW,252,3.0,6.0,77,0.00,,,0.05,Wunderground v.1.15,2013-06-06 18:21:00,
2013-06-06 14:27:00,76.4,67.9,29.76,WSW,248,4.0,6.0,75,0.00,,,0.05,Wunderground v.1.15,2013-06-06 18:27:00,
2013-06-06 14:33:00,76.6,68.1,29.76,SW,224,5.0,6.0,75,0.00,,,0.05,Wunderground v.1.15,2013-06-06 18:33:00,
2013-06-06 14:38:00,76.7,68.2,29.76,SW,236,5.0,6.0,75,0.00,,,0.05,Wunderground v.1.15,2013-06-06 18:38:00,
2013-06-06 14:44:00,77.1,68.6,29.76,South,174,4.0,6.0,75,0.00,,,0.05,Wunderground v.1.15,2013-06-06 18:44:00,
2013-06-06 14:50:00,77.1,68.2,29.76,South,172,4.0,4.0,74,0.00,,,0.05,Wunderground v.1.15,2013-06-06 18:50:00,
2013-06-06 14:56:00,77.8,68.8,29.76,WSW,249,4.0,6.0,74,0.00,,,0.05,Wunderground v.1.15,2013-06-06 18:56:00,
2013-06-06 15:02:00,77.2,67.9,29.76,SW,223,5.0,10.0,73,0.00,,,0.05,Wunderground v.1.15,2013-06-06 19:02:00,
2013-06-06 15:08:00,76.9,67.6,29.76,WNW,287,4.0,10.0,73,0.00,,,0.05,Wunderground v.1.15,2013-06-06 19:08:00,
2013-06-06 15:14:00,76.4,67.5,29.76,WNW,298,4.0,7.0,74,0.00,,,0.05,Wunderground v.1.15,2013-06-06 19:14:00,
2013-06-06 15:19:00,76.1,68.0,29.76,SW,224,5.0,7.0,76,0.00,,,0.05,Wunderground v.1.15,2013-06-06 19:19:00,
2013-06-06 15:25:00,75.9,67.0,29.76,WSW,239,5.0,8.0,74,0.00,,,0.05,Wunderground v.1.15,2013-06-06 19:25:00,
2013-06-06 15:31:00,76.1,68.0,29.76,West,274,3.0,7.0,76,0.00,,,0.05,Wunderground v.1.15,2013-06-06 19:31:00,
2013-06-06 15:37:00,76.3,67.4,29.76,WNW,285,3.0,7.0,74,0.00,,,0.05,Wunderground v.1.15,2013-06-06 19:37:00,
2013-06-06 15:43:00,76.8,67.9,29.75,West,274,3.0,7.0,74,0.00,,,0.05,Wunderground v.1.15,2013-06-06 19:43:00,
2013-06-06 15:47:00,76.9,68.4,29.75,West,269,3.0,7.0,75,0.00,,,0.05,Wunderground v.1.15,2013-06-06 19:47:00,
2013-06-06 15:52:00,77.0,67.3,29.75,West,272,4.0,7.0,72,0.00,,,0.05,Wunderground v.1.15,2013-06-06 19:52:00,
2013-06-06 15:58:00,77.0,68.5,29.75,WSW,240,4.0,7.0,75,0.00,,,0.05,Wunderground v.1.15,2013-06-06 19:58:00,
2013-06-06 16:03:00,76.9,67.6,29.75,WSW,257,3.0,14.0,73,0.00,,,0.05,Wunderground v.1.15,2013-06-06 20:03:00,
2013-06-06 16:09:00,76.6,67.7,29.76,NW,311,4.0,14.0,74,0.00,,,0.05,Wunderground v.1.15,2013-06-06 20:09:00,
2013-06-06 16:15:00,76.2,67.7,29.75,West,280,4.0,14.0,75,0.00,,,0.05,Wunderground v.1.15,2013-06-06 20:15:00,
2013-06-06 16:20:00,75.9,67.8,29.75,WSW,239,3.0,14.0,76,0.00,,,0.05,Wunderground v.1.15,2013-06-06 20:20:00,
2013-06-06 16:26:00,75.6,67.9,29.75,West,269,3.0,14.0,77,0.00,,,0.05,Wunderground v.1.15,2013-06-06 20:26:00,
2013-06-06 16:32:00,75.4,67.3,29.75,WSW,253,3.0,14.0,76,0.00,,,0.05,Wunderground v.1.15,2013-06-06 20:32:00,
2013-06-06 16:37:00,75.2,67.5,29.76,SSW,210,3.0,14.0,77,0.00,,,0.05,Wunderground v.1.15,2013-06-06 20:37:00,
2013-06-06 16:43:00,75.2,67.9,29.75,West,272,3.0,14.0,78,0.00,,,0.05,Wunderground v.1.15,2013-06-06 20:43:00,
2013-06-06 16:48:00,75.5,67.4,29.75,WNW,283,3.0,14.0,76,0.00,,,0.05,Wunderground v.1.15,2013-06-06 20:48:00,
2013-06-06 16:54:00,76.5,68.0,29.75,SSW,195,3.0,14.0,75,0.00,,,0.05,Wunderground v.1.15,2013-06-06 20:54:00,
2013-06-06 17:00:00,77.3,68.8,29.74,SW,235,3.0,4.0,75,0.00,,,0.05,Wunderground v.1.15,2013-06-06 21:00:00,
2013-06-06 17:06:00,77.3,68.0,29.74,SSE,162,3.0,5.0,73,0.00,,,0.05,Wunderground v.1.15,2013-06-06 21:06:00,
2013-06-06 17:11:00,77.7,67.5,29.74,SW,236,2.0,4.0,71,0.00,,,0.05,Wunderground v.1.15,2013-06-06 21:11:00,
2013-06-06 17:16:00,78.0,67.4,29.74,WSW,242,2.0,5.0,70,0.00,,,0.05,Wunderground v.1.15,2013-06-06 21:16:00,
2013-06-06 17:22:00,77.8,68.4,29.74,SSE,159,3.0,5.0,73,0.00,,,0.05,Wunderground v.1.15,2013-06-06 21:22:00,
2013-06-06 17:28:00,78.6,69.2,29.74,WSW,245,2.0,5.0,73,0.00,,,0.05,Wunderground v.1.15,2013-06-06 21:28:00,
2013-06-06 17:33:00,79.2,68.1,29.74,West,272,2.0,5.0,69,0.00,,,0.05,Wunderground v.1.15,2013-06-06 21:33:00,
2013-06-06 17:39:00,78.6,66.7,29.74,WSW,242,3.0,5.0,67,0.00,,,0.05,Wunderground v.1.15,2013-06-06 21:39:00,
2013-06-06 17:44:00,77.7,65.9,29.74,WSW,239,4.0,7.0,67,0.00,,,0.05,Wunderground v.1.15,2013-06-06 21:44:00,
2013-06-06 17:49:00,76.9,66.0,29.75,WSW,255,4.0,7.0,69,0.00,,,0.05,Wunderground v.1.15,2013-06-06 21:49:00,
2013-06-06 17:55:00,76.4,66.7,29.75,West,276,4.0,5.0,72,0.00,,,0.05,Wunderground v.1.15,2013-06-06 21:55:00,
2013-06-06 18:00:00,76.1,66.8,29.75,WSW,245,4.0,4.0,73,0.00,,,0.05,Wunderground v.1.15,2013-06-06 22:00:00,
2013-06-06 18:06:00,76.0,67.1,29.75,WSW,255,3.0,5.0,74,0.00,,,0.05,Wunderground v.1.15,2013-06-06 22:06:00,
2013-06-06 18:12:00,76.1,66.8,29.74,West,260,2.0,5.0,73,0.00,,,0.05,Wunderground v.1.15,2013-06-06 22:12:00,
2013-06-06 18:18:00,76.5,67.6,29.74,WSW,255,3.0,5.0,74,0.00,,,0.05,Wunderground v.1.15,2013-06-06 22:18:00,
2013-06-06 18:23:00,77.2,67.5,29.74,WNW,285,2.0,5.0,72,0.00,,,0.05,Wunderground v.1.15,2013-06-06 22:23:00,
2013-06-06 18:29:00,77.8,67.2,29.74,West,278,2.0,5.0,70,0.00,,,0.05,Wunderground v.1.15,2013-06-06 22:29:00,
2013-06-06 18:35:00,78.3,67.3,29.74,SE,129,2.0,5.0,69,0.00,,,0.05,Wunderground v.1.15,2013-06-06 22:35:00,
2013-06-06 18:40:00,78.3,66.9,29.73,SSW,201,2.0,5.0,68,0.00,,,0.05,Wunderground v.1.15,2013-06-06 22:40:00,
2013-06-06 18:46:00,78.1,68.3,29.73,South,169,3.0,5.0,72,0.00,,,0.05,Wunderground v.1.15,2013-06-06 22:46:00,
2013-06-06 18:51:00,78.4,67.0,29.73,SW,231,2.0,5.0,68,0.00,,,0.05,Wunderground v.1.15,2013-06-06 22:51:00,
2013-06-06 18:57:00,77.7,66.7,29.73,NW,309,3.0,5.0,69,0.00,,,0.05,Wunderground v.1.15,2013-06-06 22:57:00,
2013-06-06 19:02:00,77.2,67.1,29.74,SW,229,2.0,2.0,71,0.00,,,0.05,Wunderground v.1.15,2013-06-06 23:02:00,
2013-06-06 19:08:00,76.8,67.5,29.74,SW,236,1.0,2.0,73,0.00,,,0.05,Wunderground v.1.15,2013-06-06 23:08:00,
2013-06-06 19:14:00,76.6,66.9,29.74,SW,232,0.0,1.0,72,0.00,,,0.05,Wunderground v.1.15,2013-06-06 23:14:00,
2013-06-06 19:20:00,76.1,67.2,29.74,NNW,328,1.0,1.0,74,0.00,,,0.05,Wunderground v.1.15,2013-06-06 23:20:00,
2013-06-06 19:26:00,74.9,67.6,29.74,WNW,290,2.0,6.0,78,0.00,,,0.05,Wunderground v.1.15,2013-06-06 23:26:00,
2013-06-06 19:32:00,73.8,67.2,29.74,North,356,3.0,3.0,80,0.00,,,0.05,Wunderground v.1.15,2013-06-06 23:32:00,
2013-06-06 19:37:00,73.3,67.5,29.74,NNW,347,2.0,3.0,82,0.00,,,0.05,Wunderground v.1.15,2013-06-06 23:37:00,
2013-06-06 19:43:00,73.0,67.2,29.74,West,280,2.0,2.0,82,0.00,,,0.05,Wunderground v.1.15,2013-06-06 23:43:00,
2013-06-06 19:49:00,72.9,67.1,29.75,NNW,347,1.0,2.0,82,0.00,,,0.05,Wunderground v.1.15,2013-06-06 23:49:00,
2013-06-06 19:54:00,72.7,66.9,29.75,NNW,333,1.0,3.0,82,0.00,,,0.05,Wunderground v.1.15,2013-06-06 23:54:00,
2013-06-06 19:59:00,72.3,66.5,29.75,NNE,20,2.0,6.0,82,0.00,,,0.05,Wunderground v.1.15,2013-06-06 23:59:00,
2013-06-06 20:05:00,72.1,66.6,29.75,North,356,2.0,6.0,83,0.00,,,0.05,Wunderground v.1.15,2013-06-07 00:05:00,
2013-06-06 20:11:00,72.0,66.6,29.75,NW,319,1.0,6.0,83,0.00,,,0.05,Wunderground v.1.15,2013-06-07 00:11:00,
2013-06-06 20:16:00,72.0,66.9,29.75,NNE,15,1.0,6.0,84,0.00,,,0.05,Wunderground v.1.15,2013-06-07 00:16:00,
2013-06-06 20:22:00,71.9,66.8,29.75,NNW,345,1.0,6.0,84,0.00,,,0.05,Wunderground v.1.15,2013-06-07 00:22:00,
2013-06-06 20:28:00,71.7,66.9,29.75,NNW,339,1.0,6.0,85,0.00,,,0.05,Wunderground v.1.15,2013-06-07 00:28:00,
2013-06-06 20:33:00,71.5,67.1,29.75,NNE,16,1.0,6.0,86,0.00,,,0.05,Wunderground v.1.15,2013-06-07 00:33:00,
2013-06-06 20:39:00,71.3,67.2,29.75,NNW,341,1.0,6.0,87,0.00,,,0.05,Wunderground v.1.15,2013-06-07 00:39:00,
2013-06-06 20:44:00,71.2,67.1,29.75,NNW,340,0.0,6.0,87,0.00,,,0.05,Wunderground v.1.15,2013-06-07 00:44:00,
2013-06-06 20:50:00,71.1,67.4,29.75,North,357,1.0,6.0,88,0.00,,,0.05,Wunderground v.1.15,2013-06-07 00:50:00,
2013-06-06 21:19:00,69.9,67.2,29.75,ENE,69,1.0,6.0,91,0.00,,,0.05,Wunderground v.1.15,2013-06-07 01:19:00,
2013-06-06 21:25:00,69.8,67.4,29.76,NNW,347,1.0,6.0,92,0.00,,,0.05,Wunderground v.1.15,2013-06-07 01:25:00,
2013-06-06 21:31:00,69.6,67.2,29.75,North,351,0.0,6.0,92,0.00,,,0.05,Wunderground v.1.15,2013-06-07 01:31:00,
2013-06-06 21:37:00,69.4,67.0,29.75,North,360,0.0,6.0,92,0.00,,,0.05,Wunderground v.1.15,2013-06-07 01:37:00,
2013-06-06 21:42:00,69.2,66.8,29.76,North,360,0.0,6.0,92,0.00,,,0.05,Wunderground v.1.15,2013-06-07 01:42:00,
2013-06-06 21:48:00,69.0,66.9,29.76,North,7,0.0,6.0,93,0.00,,,0.05,Wunderground v.1.15,2013-06-07 01:48:00,
2013-06-06 21:54:00,68.8,66.7,29.76,NNE,13,0.0,6.0,93,0.00,,,0.05,Wunderground v.1.15,2013-06-07 01:54:00,
2013-06-06 22:00:00,68.6,66.5,29.76,NNE,13,0.0,0.0,93,0.00,,,0.05,Wunderground v.1.15,2013-06-07 02:00:00,
2013-06-06 22:06:00,68.4,66.6,29.76,NNE,13,0.0,0.0,94,0.00,,,0.05,Wunderground v.1.15,2013-06-07 02:06:00,
2013-06-06 22:12:00,68.2,66.4,29.76,NNE,13,0.0,0.0,94,0.00,,,0.05,Wunderground v.1.15,2013-06-07 02:12:00,
2013-06-06 22:18:00,68.0,66.2,29.76,NNE,13,0.0,0.0,94,0.00,,,0.05,Wunderground v.1.15,2013-06-07 02:18:00,
2013-06-06 22:23:00,67.9,66.1,29.76,NNW,341,0.0,0.0,94,0.00,,,0.05,Wunderground v.1.15,2013-06-07 02:23:00,
2013-06-06 22:29:00,67.7,66.2,29.76,WNW,285,0.0,1.0,95,0.00,,,0.05,Wunderground v.1.15,2013-06-07 02:29:00,
2013-06-06 22:35:00,67.5,66.0,29.77,WNW,285,0.0,0.0,95,0.00,,,0.05,Wunderground v.1.15,2013-06-07 02:35:00,
2013-06-06 22:41:00,67.4,65.9,29.77,WNW,285,0.0,0.0,95,0.00,,,0.05,Wunderground v.1.15,2013-06-07 02:41:00,
2013-06-06 22:46:00,67.2,65.7,29.77,WNW,285,0.0,0.0,95,0.00,,,0.05,Wunderground v.1.15,2013-06-07 02:46:00,
2013-06-06 22:52:00,67.0,65.5,29.77,WNW,285,0.0,0.0,95,0.00,,,0.05,Wunderground v.1.15,2013-06-07 02:52:00,
2013-06-06 22:58:00,66.8,65.6,29.77,WNW,285,0.0,0.0,96,0.00,,,0.05,Wunderground v.1.15,2013-06-07 02:58:00,
2013-06-06 23:03:00,66.6,65.1,29.77,WNW,287,0.0,0.0,95,0.00,,,0.05,Wunderground v.1.15,2013-06-07 03:03:00,
2013-06-06 23:09:00,66.3,65.1,29.77,WNW,287,0.0,0.0,96,0.00,,,0.05,Wunderground v.1.15,2013-06-07 03:09:00,
2013-06-06 23:14:00,66.0,64.8,29.77,WNW,285,0.0,0.0,96,0.00,,,0.05,Wunderground v.1.15,2013-06-07 03:14:00,
2013-06-06 23:21:00,65.9,64.7,29.78,WNW,285,0.0,0.0,96,0.00,,,0.05,Wunderground v.1.15,2013-06-07 03:21:00,
2013-06-06 23:27:00,65.8,64.6,29.78,WNW,285,0.0,0.0,96,0.00,,,0.05,Wunderground v.1.15,2013-06-07 03:27:00,
2013-06-06 23:33:00,65.8,64.9,29.78,WNW,285,0.0,0.0,97,0.00,,,0.05,Wunderground v.1.15,2013-06-07 03:33:00,
2013-06-06 23:38:00,65.6,64.4,29.78,WNW,285,0.0,0.0,96,0.00,,,0.05,Wunderground v.1.15,2013-06-07 03:38:00,
2013-06-06 23:44:00,65.7,64.8,29.78,WNW,285,0.0,0.0,97,0.00,,,0.05,Wunderground v.1.15,2013-06-07 03:44:00,
2013-06-06 23:50:00,65.8,64.9,29.77,WNW,286,0.0,0.0,97,0.00,,,0.05,Wunderground v.1.15,2013-06-07 03:50:00,
2013-06-06 23:55:00,65.9,65.0,29.77,ENE,59,0.0,0.0,97,0.00,,,0.05,Wunderground v.1.15,2013-06-07 03:55:00,